Flag for Chile Weather past 2 weeks in Antofagasta, Chile

Now
57 °F

Partly cloudy.


Feels Like: 56 °F
Forecast: 58 / 68 °F
Wind: 7 mph from South

Location: Antofagasta Airport

Current Time: Sep 23, 2014 at 5:56:42 AM

Latest Report: Sep 23, 2014 at 5:00 AM


Visibility: N/A

Pressure: 30.09 "Hg

Humidity: 77%

Dew point: 50 °F

Location of AntofagastaLocation

Historic Weather in Antofagasta — Graph

°F

Antofagasta temperature yesterday

Maximum temperature yesterday: 63 °F (at 12:00 PM)
Minimum temperature yesterday: 57 °F (at 12:00 AM)
Average temperature yesterday: 59 °F

Past Weeks' High & Low Weather Summary

 TemperatureHumidityPressure
High64 °F (Sep 15, 1:00 PM)94% (Sep 13, 10:00 AM)30.15 "Hg (Sep 13, 10:00 AM)
Low50 °F (Sep 12, 3:00 AM)52% (Sep 12, 12:00 PM)29.86 "Hg (Sep 11, 5:00 PM)
Average58 °F74%30.01 "Hg
* Reported Sep 8 4:00 AM — Sep 23 4:00 AM, Antofagasta, Weather by CustomWeather, © 2014

Note: Actual official high and low records may vary slightly from our data, if they occured in-between our weather recording intervals... More about our weather records

Advertising

Antofagasta weather history for previous 24 hours

 ConditionsComfort  
Time TempWeatherWind HumidityBarometerVisibility
4:00 AM
Sep 23
59 °FPartly cloudy.5 mph72%30.09 "HgN/A
3:00 AM57 °FPassing clouds.2 mph77%30.12 "HgN/A
2:00 AM57 °FPassing clouds.3 mph82%30.15 "HgN/A
1:00 AM57 °FPartly cloudy.6 mph82%30.15 "HgN/A
12:00 AM59 °FPartly cloudy.8 mph77%30.12 "HgN/A
11:00 PM
Sep 22
59 °FPassing clouds.8 mph77%30.12 "HgN/A
10:00 PM57 °FPassing clouds.10 mph82%30.09 "HgN/A
9:00 PM57 °FPassing clouds.12 mph77%30.07 "HgN/A
8:00 PM59 °FPassing clouds.13 mph72%30.04 "HgN/A
7:00 PM61 °FPassing clouds.13 mph63%30.04 "HgN/A
6:00 PM61 °FScattered clouds.14 mph68%30.01 "HgN/A
5:00 PM61 °FScattered clouds.15 mph68%30.01 "HgN/A
4:00 PM63 °FPassing clouds.13 mph56%30.01 "HgN/A
3:00 PM63 °FPassing clouds.14 mph56%30.04 "HgN/A
2:00 PM63 °FPassing clouds.13 mph59%30.04 "HgN/A
1:00 PM63 °FPassing clouds.10 mph56%30.04 "HgN/A
12:00 PM63 °FScattered clouds.8 mph56%30.07 "HgN/A
11:00 AM61 °FScattered clouds.9 mph63%30.07 "HgN/A
10:00 AM57 °FPartly sunny.5 mph67%30.07 "HgN/A
9:00 AM57 °FPartly sunny.5 mph67%30.07 "HgN/A
8:00 AM57 °FOvercast.5 mph67%30.07 "HgN/A
7:00 AM57 °FOvercast.3 mph67%30.04 "HgN/A
6:00 AM57 °FOvercast.6 mph67%30.04 "HgN/A
5:00 AM57 °FOvercast.8 mph67%30.04 "HgN/A
Weather by CustomWeather, © 2014

See weather overviewHow to use our weather pages